| time (UTC) | temp C | wind direction | speed KPH | gust KPH | rain 1hr cm | rain 24hr cm | rain mn cm | humidity % | barometer mb |
| 20260507221249 | 14 | 24 | 9.7 | 14.5 | 0.00 | 0.23 | 0.00 | 77 | 1014.1 |
| 20260507220749 | 14 | 329 | 8.0 | 14.5 | 0.00 | 0.23 | 0.00 | 77 | 1014.1 |
| 20260507220341 | 14 | 343 | 9.7 | 14.5 | 0.00 | 0.23 | 0.00 | 78 | 1014.0 |
| 20260507215859 | 13 | 41 | 3.2 | 11.3 | 0.00 | 0.23 | 0.23 | 78 | 1013.9 |
| 20260507214233 | 15 | 354 | 6.4 | 11.3 | 0.00 | 0.23 | 0.23 | 77 | 1013.9 |
| 20260507213741 | 15 | 345 | 6.4 | 14.5 | 0.00 | 0.23 | 0.23 | 76 | 1013.8 |
| 20260507213229 | 15 | 341 | 6.4 | 14.5 | 0.00 | 0.23 | 0.23 | 77 | 1013.8 |
| 20260507212719 | 15 | 337 | 6.4 | 9.7 | 0.00 | 0.23 | 0.23 | 76 | 1013.9 |
| 20260507212242 | 15 | 338 | 6.4 | 11.3 | 0.00 | 0.23 | 0.23 | 76 | 1013.9 |
| 20260507211212 | 15 | 3 | 9.7 | 11.3 | 0.00 | 0.23 | 0.23 | 76 | 1013.9 |
| 20260507210704 | 15 | 8 | 8.0 | 11.3 | 0.00 | 0.23 | 0.23 | 76 | 1013.9 |
| 20260507210206 | 15 | 350 | 9.7 | 11.3 | 0.00 | 0.23 | 0.23 | 75 | 1013.9 |
| 20260507205718 | 15 | 350 | 8.0 | 9.7 | 0.00 | 0.23 | 0.23 | 74 | 1013.9 |
| 20260507204649 | 15 | 344 | 9.7 | 14.5 | 0.00 | 0.23 | 0.23 | 75 | 1013.9 |
| 20260507204148 | 15 | 347 | 9.7 | 11.3 | 0.00 | 0.23 | 0.23 | 74 | 1013.9 |
| 20260507203637 | 15 | 355 | 9.7 | 11.3 | 0.00 | 0.23 | 0.23 | 73 | 1013.8 |
| 20260507203135 | 15 | 357 | 8.0 | 9.7 | 0.00 | 0.23 | 0.23 | 73 | 1013.8 |
| 20260507202638 | 15 | 351 | 8.0 | 9.7 | 0.00 | 0.23 | 0.23 | 73 | 1013.8 |
| 20260507202130 | 15 | 354 | 6.4 | 6.4 | 0.00 | 0.23 | 0.23 | 74 | 1013.8 |
| 20260507201624 | 16 | 37 | 3.2 | 8.0 | 0.00 | 0.23 | 0.23 | 73 | 1013.9 |
| 20260507201132 | 16 | 18 | 6.4 | 8.0 | 0.00 | 0.23 | 0.23 | 71 | 1013.8 |
| 20260507200613 | 16 | 355 | 6.4 | 8.0 | 0.00 | 0.23 | 0.23 | 72 | 1013.8 |
| 20260507195606 | 16 | 343 | 6.4 | 9.7 | 0.00 | 0.23 | 0.23 | 72 | 1013.8 |
| 20260507195057 | 16 | 345 | 6.4 | 9.7 | 0.00 | 0.23 | 0.23 | 72 | 1013.7 |
| 20260507194632 | 16 | 345 | 6.4 | 8.0 | 0.00 | 0.23 | 0.23 | 71 | 1013.8 |
| 20260507193544 | 16 | 343 | 6.4 | 8.0 | 0.00 | 0.23 | 0.23 | 69 | 1013.7 |
| 20260507193047 | 16 | 11 | 4.8 | 8.0 | 0.00 | 0.23 | 0.23 | 68 | 1013.7 |
| 20260507192549 | 16 | 0 | 6.4 | 6.4 | 0.00 | 0.23 | 0.23 | 68 | 1013.6 |
| 20260507192048 | 17 | 336 | 1.6 | 4.8 | 0.00 | 0.23 | 0.23 | 68 | 1013.6 |
| 20260507191546 | 17 | 323 | 3.2 | 6.4 | 0.00 | 0.23 | 0.23 | 69 | 1013.7 |
| 20260507191038 | 17 | 336 | 3.2 | 6.4 | 0.00 | 0.23 | 0.23 | 68 | 1013.6 |
| 20260507190538 | 17 | 336 | 1.6 | 6.4 | 0.00 | 0.23 | 0.23 | 67 | 1013.6 |
| 20260507185530 | 17 | 353 | 8.0 | 8.0 | 0.00 | 0.23 | 0.23 | 66 | 1013.6 |
| 20260507185034 | 17 | 345 | 6.4 | 9.7 | 0.00 | 0.23 | 0.23 | 66 | 1013.5 |
| 20260507184533 | 17 | 341 | 6.4 | 9.7 | 0.00 | 0.23 | 0.23 | 66 | 1013.5 |
| 20260507184033 | 17 | 340 | 6.4 | 9.7 | 0.00 | 0.23 | 0.23 | 66 | 1013.5 |
| 20260507183530 | 18 | 350 | 6.4 | 8.0 | 0.00 | 0.25 | 0.23 | 66 | 1013.6 |
| 20260507183030 | 18 | 343 | 6.4 | 8.0 | 0.00 | 0.25 | 0.23 | 66 | 1013.6 |
| 20260507182502 | 18 | 353 | 6.4 | 6.4 | 0.00 | 0.30 | 0.23 | 64 | 1013.6 |
| 20260507182004 | 18 | 357 | 6.4 | 6.4 | 0.00 | 0.30 | 0.23 | 64 | 1013.6 |
| 20260507181502 | 18 | 358 | 6.4 | 6.4 | 0.00 | 0.30 | 0.23 | 64 | 1013.7 |
| 20260507181003 | 18 | 358 | 4.8 | 6.4 | 0.00 | 0.30 | 0.23 | 64 | 1013.7 |
| 20260507180501 | 18 | 355 | 4.8 | 6.4 | 0.00 | 0.30 | 0.23 | 63 | 1013.6 |
| 20260507175954 | 18 | 354 | 3.2 | 4.8 | 0.00 | 0.30 | 0.23 | 63 | 1013.6 |
| 20260507175501 | 18 | 344 | 3.2 | 3.2 | 0.00 | 0.30 | 0.23 | 63 | 1013.6 |
| 20260507174957 | 18 | 331 | 1.6 | 3.2 | 0.00 | 0.30 | 0.23 | 62 | 1013.6 |
| 20260507174457 | 19 | 327 | 0.0 | 3.2 | 0.00 | 0.30 | 0.23 | 62 | 1013.5 |
| 20260507173950 | 19 | 355 | 0.0 | 3.2 | 0.00 | 0.30 | 0.23 | 62 | 1013.5 |
| 20260507173448 | 20 | 354 | 3.2 | 4.8 | 0.00 | 0.30 | 0.23 | 61 | 1013.5 |
| 20260507172943 | 20 | 350 | 3.2 | 4.8 | 0.00 | 0.30 | 0.23 | 60 | 1013.4 |
| 20260507172445 | 20 | 330 | 1.6 | 6.4 | 0.00 | 0.30 | 0.23 | 61 | 1013.4 |
| 20260507171941 | 20 | 307 | 3.2 | 6.4 | 0.00 | 0.30 | 0.23 | 60 | 1013.3 |
| 20260507171453 | 21 | 1 | 1.6 | 4.8 | 0.00 | 0.30 | 0.23 | 60 | 1013.3 |
| 20260507170942 | 21 | 343 | 1.6 | 4.8 | 0.00 | 0.30 | 0.23 | 60 | 1013.4 |
| 20260507170444 | 21 | 288 | 1.6 | 6.4 | 0.00 | 0.30 | 0.23 | 60 | 1013.3 |
| 20260507165946 | 21 | 20 | 3.2 | 6.4 | 0.00 | 0.30 | 0.23 | 59 | 1013.3 |
| 20260507165442 | 21 | 0 | 3.2 | 4.8 | 0.00 | 0.30 | 0.23 | 58 | 1013.3 |
| 20260507164941 | 21 | 348 | 3.2 | 6.4 | 0.00 | 0.30 | 0.23 | 57 | 1013.3 |
| 20260507164444 | 21 | 344 | 4.8 | 9.7 | 0.00 | 0.30 | 0.23 | 57 | 1013.4 |
| 20260507163947 | 21 | 306 | 1.6 | 11.3 | 0.00 | 0.30 | 0.23 | 59 | 1013.3 |
| 20260507163428 | 21 | 353 | 8.0 | 11.3 | 0.00 | 0.30 | 0.23 | 57 | 1013.2 |
| 20260507162921 | 21 | 286 | 1.6 | 6.4 | 0.00 | 0.30 | 0.23 | 57 | 1013.2 |
| 20260507162425 | 21 | 324 | 1.6 | 8.0 | 0.00 | 0.30 | 0.23 | 57 | 1013.2 |
| 20260507161919 | 21 | 337 | 4.8 | 8.0 | 0.00 | 0.30 | 0.23 | 56 | 1013.2 |
| 20260507161414 | 21 | 13 | 3.2 | 9.7 | 0.00 | 0.30 | 0.23 | 54 | 1013.3 |
| 20260507160914 | 21 | 351 | 3.2 | 9.7 | 0.00 | 0.30 | 0.23 | 55 | 1013.2 |
| 20260507160401 | 22 | 357 | 3.2 | 6.4 | 0.00 | 0.30 | 0.23 | 55 | 1013.2 |
| 20260507155901 | 22 | 271 | 0.0 | 3.2 | 0.00 | 0.30 | 0.23 | 55 | 1013.3 |
| 20260507155357 | 21 | 250 | 1.6 | 3.2 | 0.00 | 0.30 | 0.23 | 55 | 1013.2 |
| 20260507154351 | 21 | 86 | 3.2 | 4.8 | 0.00 | 0.30 | 0.23 | 55 | 1013.3 |
| 20260507153847 | 21 | 200 | 0.0 | 4.8 | 0.00 | 0.30 | 0.23 | 53 | 1013.4 |
| 20260507153343 | 21 | 171 | 1.6 | 6.4 | 0.00 | 0.30 | 0.23 | 55 | 1013.4 |
| 20260507152842 | 21 | 353 | 3.2 | 6.4 | 0.00 | 0.30 | 0.23 | 54 | 1013.3 |
| 20260507152345 | 21 | 99 | 0.0 | 6.4 | 0.00 | 0.30 | 0.23 | 56 | 1013.4 |
| 20260507151838 | 21 | 14 | 4.8 | 6.4 | 0.00 | 0.30 | 0.23 | 55 | 1013.5 |
| 20260507151337 | 21 | 354 | 3.2 | 4.8 | 0.00 | 0.30 | 0.23 | 56 | 1013.4 |
| 20260507150833 | 21 | 323 | 1.6 | 4.8 | 0.00 | 0.30 | 0.23 | 58 | 1013.4 |
| 20260507150330 | 21 | 265 | 1.6 | 4.8 | 0.00 | 0.30 | 0.23 | 59 | 1013.4 |
| 20260507145822 | 20 | 275 | 3.2 | 6.4 | 0.00 | 0.30 | 0.23 | 58 | 1013.4 |
| 20260507145319 | 20 | 286 | 3.2 | 6.4 | 0.00 | 0.30 | 0.23 | 59 | 1013.5 |
| 20260507144821 | 20 | 306 | 3.2 | 4.8 | 0.00 | 0.30 | 0.23 | 60 | 1013.5 |
| 20260507144318 | 20 | 279 | 4.8 | 4.8 | 0.00 | 0.30 | 0.23 | 58 | 1013.5 |
| 20260507143807 | 20 | 326 | 1.6 | 3.2 | 0.00 | 0.30 | 0.23 | 62 | 1013.6 |
| 20260507143306 | 19 | 295 | 1.6 | 4.8 | 0.00 | 0.30 | 0.23 | 63 | 1013.6 |
| 20260507142806 | 19 | 298 | 3.2 | 4.8 | 0.00 | 0.30 | 0.23 | 62 | 1013.6 |
| 20260507142307 | 19 | 235 | 3.2 | 6.4 | 0.00 | 0.30 | 0.23 | 62 | 1013.7 |
| 20260507141810 | 20 | 296 | 4.8 | 6.4 | 0.00 | 0.30 | 0.23 | 62 | 1013.7 |
| 20260507141259 | 20 | 292 | 3.2 | 6.4 | 0.00 | 0.30 | 0.23 | 62 | 1013.8 |
| 20260507140754 | 20 | 298 | 1.6 | 11.3 | 0.00 | 0.30 | 0.23 | 60 | 1013.9 |
| 20260507140252 | 20 | 216 | 6.4 | 11.3 | 0.00 | 0.30 | 0.23 | 57 | 1013.9 |
| 20260507135248 | 20 | 272 | 6.4 | 11.3 | 0.00 | 0.30 | 0.23 | 59 | 1014.0 |
| 20260507133739 | 20 | 110 | 0.0 | 11.3 | 0.00 | 0.41 | 0.23 | 58 | 1014.2 |
| 20260507133241 | 21 | 221 | 6.4 | 11.3 | 0.00 | 0.41 | 0.23 | 56 | 1014.3 |
| 20260507132737 | 20 | 214 | 4.8 | 14.5 | 0.00 | 0.41 | 0.23 | 55 | 1014.3 |
| 20260507132242 | 21 | 231 | 6.4 | 14.5 | 0.00 | 0.41 | 0.23 | 57 | 1014.4 |
| 20260507131736 | 21 | 240 | 3.2 | 9.7 | 0.00 | 0.41 | 0.23 | 56 | 1014.5 |
| 20260507131236 | 21 | 159 | 4.8 | 9.7 | 0.00 | 0.41 | 0.23 | 56 | 1014.4 |
| 20260507130724 | 21 | 250 | 6.4 | 11.3 | 0.00 | 0.41 | 0.23 | 58 | 1014.5 |
| 20260507130225 | 21 | 172 | 6.4 | 16.1 | 0.00 | 0.41 | 0.23 | 57 | 1014.6 |
| 20260507125219 | 20 | 219 | 9.7 | 17.7 | 0.00 | 0.41 | 0.23 | 56 | 1014.7 |
| 20260507124212 | 20 | 199 | 9.7 | 22.5 | 0.00 | 0.41 | 0.23 | 57 | 1014.6 |
| 20260507123721 | 19 | 189 | 12.9 | 22.5 | 0.00 | 0.41 | 0.23 | 59 | 1014.6 |
| 20260507123208 | 19 | 210 | 6.4 | 19.3 | 0.00 | 0.41 | 0.23 | 59 | 1014.7 |
| 20260507122206 | 20 | 183 | 8.0 | 17.7 | 0.00 | 0.41 | 0.23 | 63 | 1014.6 |
| 20260507121706 | 20 | 137 | 9.7 | 17.7 | 0.00 | 0.41 | 0.23 | 64 | 1014.6 |
| 20260507120658 | 20 | 206 | 12.9 | 17.7 | 0.00 | 0.41 | 0.23 | 59 | 1014.5 |
| 20260507115646 | 20 | 206 | 9.7 | 19.3 | 0.00 | 0.41 | 0.23 | 63 | 1014.6 |
| 20260507115152 | 20 | 154 | 6.4 | 19.3 | 0.00 | 0.41 | 0.23 | 64 | 1014.6 |
| 20260507114641 | 20 | 118 | 8.0 | 16.1 | 0.00 | 0.41 | 0.23 | 60 | 1014.6 |
| 20260507114142 | 20 | 133 | 9.7 | 16.1 | 0.00 | 0.41 | 0.23 | 66 | 1014.7 |
| 20260507113645 | 20 | 141 | 9.7 | 11.3 | 0.00 | 0.41 | 0.23 | 66 | 1014.7 |
| 20260507113138 | 20 | 117 | 4.8 | 14.5 | 0.00 | 0.41 | 0.23 | 65 | 1014.7 |
| 20260507112637 | 20 | 209 | 8.0 | 14.5 | 0.00 | 0.41 | 0.23 | 63 | 1014.8 |
| 20260507112135 | 20 | 141 | 6.4 | 16.1 | 0.00 | 0.41 | 0.23 | 61 | 1014.8 |
| 20260507111644 | 19 | 210 | 8.0 | 16.1 | 0.00 | 0.41 | 0.23 | 64 | 1014.8 |
| 20260507111141 | 20 | 137 | 9.7 | 16.1 | 0.00 | 0.41 | 0.23 | 63 | 1014.8 |
| 20260507110142 | 19 | 234 | 6.4 | 17.7 | 0.00 | 0.41 | 0.23 | 67 | 1014.9 |
| 20260507105629 | 18 | 220 | 9.7 | 19.3 | 0.00 | 0.41 | 0.23 | 64 | 1014.9 |
| 20260507105130 | 18 | 243 | 6.4 | 19.3 | 0.00 | 0.41 | 0.23 | 63 | 1015.1 |
| 20260507104624 | 18 | 204 | 9.7 | 19.3 | 0.00 | 0.41 | 0.23 | 63 | 1015.1 |
| 20260507104123 | 19 | 188 | 8.0 | 19.3 | 0.00 | 0.41 | 0.23 | 69 | 1015.1 |
| 20260507103112 | 18 | 159 | 8.0 | 19.3 | 0.00 | 0.41 | 0.23 | 71 | 1015.2 |
| 20260507102611 | 18 | 196 | 14.5 | 19.3 | 0.00 | 0.41 | 0.23 | 67 | 1015.2 |
| 20260507102115 | 18 | 206 | 12.9 | 17.7 | 0.00 | 0.41 | 0.23 | 67 | 1015.2 |
| 20260507101613 | 18 | 207 | 9.7 | 19.3 | 0.00 | 0.41 | 0.23 | 70 | 1015.2 |
| 20260507101106 | 18 | 144 | 4.8 | 19.3 | 0.00 | 0.41 | 0.23 | 71 | 1015.3 |
| 20260507100058 | 18 | 206 | 6.4 | 14.5 | 0.00 | 0.41 | 0.23 | 76 | 1015.5 |
| 20260507095057 | 17 | 209 | 8.0 | 17.7 | 0.00 | 0.41 | 0.23 | 75 | 1015.3 |
| 20260507094537 | 17 | 210 | 8.0 | 17.7 | 0.00 | 0.41 | 0.23 | 79 | 1015.4 |
| 20260507094037 | 17 | 110 | 11.3 | 16.1 | 0.00 | 0.41 | 0.23 | 79 | 1015.3 |
| 20260507093533 | 17 | 144 | 8.0 | 11.3 | 0.00 | 0.41 | 0.23 | 78 | 1015.4 |
| 20260507092529 | 17 | 61 | 8.0 | 16.1 | 0.00 | 0.41 | 0.23 | 79 | 1015.4 |
| 20260507092020 | 17 | 140 | 6.4 | 14.5 | 0.00 | 0.41 | 0.23 | 79 | 1015.5 |
| 20260507091528 | 17 | 230 | 8.0 | 14.5 | 0.00 | 0.41 | 0.23 | 81 | 1015.5 |
| 20260507091025 | 16 | 235 | 6.4 | 11.3 | 0.00 | 0.41 | 0.23 | 82 | 1015.4 |
| 20260507090525 | 16 | 190 | 6.4 | 17.7 | 0.00 | 0.41 | 0.23 | 83 | 1015.5 |
| 20260507090007 | 16 | 210 | 8.0 | 17.7 | 0.00 | 0.41 | 0.23 | 82 | 1015.5 |
| 20260507084949 | 16 | 182 | 9.7 | 16.1 | 0.00 | 0.41 | 0.23 | 83 | 1015.6 |
| 20260507084442 | 16 | 137 | 6.4 | 17.7 | 0.00 | 0.41 | 0.23 | 84 | 1015.5 |
| 20260507083945 | 16 | 238 | 9.7 | 19.3 | 0.00 | 0.41 | 0.23 | 83 | 1015.6 |
| 20260507083439 | 16 | 233 | 8.0 | 19.3 | 0.00 | 0.41 | 0.23 | 83 | 1015.5 |
| 20260507082935 | 16 | 199 | 8.0 | 11.3 | 0.00 | 0.41 | 0.23 | 85 | 1015.6 |
| 20260507082434 | 15 | 133 | 6.4 | 11.3 | 0.00 | 0.41 | 0.23 | 85 | 1015.5 |
| 20260507081938 | 15 | 127 | 8.0 | 11.3 | 0.00 | 0.41 | 0.23 | 86 | 1015.5 |
| 20260507081433 | 15 | 203 | 8.0 | 11.3 | 0.00 | 0.41 | 0.23 | 87 | 1015.5 |
| 20260507080933 | 15 | 200 | 8.0 | 17.7 | 0.00 | 0.41 | 0.23 | 87 | 1015.5 |
| 20260507080432 | 15 | 207 | 8.0 | 17.7 | 0.00 | 0.41 | 0.23 | 86 | 1015.6 |
| 20260507075931 | 15 | 157 | 8.0 | 17.7 | 0.00 | 0.41 | 0.23 | 89 | 1015.7 |
| 20260507075432 | 15 | 130 | 6.4 | 11.3 | 0.00 | 0.41 | 0.23 | 90 | 1015.6 |
| 20260507074930 | 14 | 189 | 6.4 | 9.7 | 0.00 | 0.41 | 0.23 | 90 | 1015.6 |
| 20260507074432 | 14 | 176 | 6.4 | 9.7 | 0.00 | 0.41 | 0.23 | 90 | 1015.7 |
| 20260507073429 | 13 | 202 | 9.7 | 11.3 | 0.00 | 0.41 | 0.23 | 89 | 1015.6 |
| 20260507072931 | 13 | 162 | 4.8 | 8.0 | 0.00 | 0.41 | 0.23 | 90 | 1015.6 |
| 20260507071933 | 13 | 144 | 6.4 | 14.5 | 0.00 | 0.41 | 0.23 | 90 | 1015.6 |
| 20260507071429 | 13 | 131 | 8.0 | 14.5 | 0.00 | 0.41 | 0.23 | 91 | 1015.6 |
| 20260507070930 | 13 | 186 | 9.7 | 11.3 | 0.00 | 0.41 | 0.23 | 90 | 1015.5 |
| 20260507070430 | 13 | 204 | 6.4 | 14.5 | 0.00 | 0.41 | 0.23 | 93 | 1015.5 |
| 20260507065930 | 13 | 193 | 6.4 | 16.1 | 0.00 | 0.41 | 0.23 | 93 | 1015.5 |
| 20260507065429 | 13 | 55 | 6.4 | 16.1 | 0.00 | 0.41 | 0.23 | 93 | 1015.4 |
| 20260507064428 | 13 | 206 | 9.7 | 16.1 | 0.00 | 0.41 | 0.23 | 93 | 1015.4 |
| 20260507063929 | 13 | 178 | 9.7 | 11.3 | 0.00 | 0.41 | 0.23 | 93 | 1015.3 |
| 20260507062429 | 12 | 154 | 4.8 | 9.7 | 0.00 | 0.41 | 0.23 | 93 | 1015.3 |
| 20260507061928 | 12 | 183 | 4.8 | 9.7 | 0.00 | 0.41 | 0.23 | 93 | 1015.3 |
| 20260507061429 | 12 | 200 | 6.4 | 9.7 | 0.00 | 0.41 | 0.23 | 93 | 1015.2 |
| 20260507060928 | 12 | 214 | 4.8 | 9.7 | 0.00 | 0.41 | 0.23 | 93 | 1015.3 |
| 20260507060426 | 12 | 234 | 6.4 | 11.3 | 0.00 | 0.41 | 0.23 | 93 | 1015.3 |
| 20260507055928 | 12 | 113 | 8.0 | 11.3 | 0.00 | 0.41 | 0.23 | 93 | 1015.2 |
| 20260507055428 | 12 | 145 | 8.0 | 9.7 | 0.00 | 0.41 | 0.23 | 94 | 1015.3 |
| 20260507054927 | 12 | 183 | 6.4 | 9.7 | 0.00 | 0.41 | 0.23 | 94 | 1015.2 |
| 20260507054431 | 12 | 147 | 6.4 | 9.7 | 0.00 | 0.41 | 0.23 | 94 | 1015.3 |
| 20260507053927 | 12 | 172 | 6.4 | 14.5 | 0.00 | 0.41 | 0.23 | 94 | 1015.1 |
| 20260507053432 | 12 | 164 | 8.0 | 14.5 | 0.00 | 0.41 | 0.23 | 94 | 1015.1 |
| 20260507052928 | 12 | 185 | 6.4 | 9.7 | 0.00 | 0.41 | 0.23 | 94 | 1015.1 |
| 20260507052431 | 12 | 154 | 6.4 | 16.1 | 0.00 | 0.41 | 0.23 | 94 | 1014.9 |
| 20260507051915 | 12 | 185 | 6.4 | 16.1 | 0.00 | 0.41 | 0.23 | 94 | 1014.9 |
| 20260507051415 | 12 | 168 | 4.8 | 11.3 | 0.00 | 0.41 | 0.23 | 94 | 1014.9 |
| 20260507050905 | 12 | 157 | 4.8 | 14.5 | 0.00 | 0.41 | 0.23 | 94 | 1014.9 |
| 20260507050406 | 12 | 188 | 9.7 | 14.5 | 0.00 | 0.41 | 0.23 | 94 | 1014.9 |
| 20260507045904 | 12 | 221 | 3.2 | 11.3 | 0.00 | 0.41 | 0.23 | 94 | 1014.9 |
| 20260507045358 | 12 | 226 | 4.8 | 17.7 | 0.00 | 0.41 | 0.23 | 94 | 1014.7 |
| 20260507044856 | 11 | 113 | 8.0 | 17.7 | 0.00 | 0.41 | 0.23 | 94 | 1014.7 |
| 20260507044348 | 11 | 172 | 9.7 | 20.9 | 0.00 | 0.41 | 0.23 | 94 | 1014.6 |
| 20260507043848 | 11 | 124 | 9.7 | 20.9 | 0.00 | 0.41 | 0.23 | 94 | 1014.6 |
| 20260507043340 | 11 | 142 | 6.4 | 9.7 | 0.00 | 0.41 | 0.23 | 94 | 1014.6 |
| 20260507042847 | 12 | 145 | 6.4 | 14.5 | 0.00 | 0.41 | 0.23 | 94 | 1014.5 |
| 20260507042338 | 12 | 186 | 6.4 | 14.5 | 0.00 | 0.41 | 0.23 | 94 | 1014.5 |
| 20260507041836 | 12 | 216 | 3.2 | 16.1 | 0.00 | 0.41 | 0.23 | 94 | 1014.5 |
| 20260507041333 | 11 | 155 | 11.3 | 16.1 | 0.00 | 0.41 | 0.23 | 94 | 1014.3 |
| 20260507040837 | 11 | 188 | 9.7 | 16.1 | 0.00 | 0.41 | 0.23 | 94 | 1014.4 |
| 20260507040323 | 11 | 193 | 8.0 | 16.1 | 0.00 | 0.41 | 0.23 | 94 | 1014.3 |
| 20260507035813 | 11 | 149 | 8.0 | 16.1 | 0.00 | 0.41 | 0.23 | 94 | 1014.2 |
| 20260507035318 | 11 | 200 | 11.3 | 16.1 | 0.00 | 0.41 | 0.23 | 94 | 1014.2 |
| 20260507034758 | 12 | 209 | 8.0 | 14.5 | 0.00 | 0.41 | 0.23 | 94 | 1014.3 |
| 20260507034242 | 12 | 196 | 6.4 | 17.7 | 0.00 | 0.41 | 0.23 | 94 | 1014.2 |
| 20260507033739 | 12 | 185 | 8.0 | 17.7 | 0.00 | 0.41 | 0.23 | 94 | 1014.2 |
| 20260507033233 | 12 | 219 | 6.4 | 14.5 | 0.00 | 0.41 | 0.23 | 94 | 1014.2 |
| 20260507032735 | 12 | 192 | 9.7 | 14.5 | 0.00 | 0.41 | 0.23 | 94 | 1014.1 |
| 20260507032231 | 12 | 206 | 8.0 | 14.5 | 0.00 | 0.41 | 0.23 | 94 | 1014.2 |
| 20260507031730 | 12 | 183 | 6.4 | 14.5 | 0.00 | 0.41 | 0.23 | 94 | 1014.1 |
| 20260507025658 | 12 | 168 | 11.3 | 16.1 | 0.00 | 0.41 | 0.23 | 94 | 1014.1 |
| 20260507025157 | 12 | 162 | 8.0 | 16.1 | 0.00 | 0.41 | 0.23 | 94 | 1014.1 |
| 20260507024154 | 12 | 190 | 6.4 | 16.1 | 0.00 | 0.41 | 0.23 | 94 | 1014.2 |
| 20260507023648 | 12 | 162 | 8.0 | 16.1 | 0.00 | 0.41 | 0.23 | 94 | 1014.2 |
| 20260507023153 | 12 | 192 | 8.0 | 11.3 | 0.00 | 0.41 | 0.23 | 94 | 1014.1 |
| 20260507022636 | 12 | 172 | 4.8 | 11.3 | 0.00 | 0.41 | 0.23 | 94 | 1014.1 |
| 20260507021624 | 12 | 138 | 8.0 | 19.3 | 0.00 | 0.41 | 0.23 | 94 | 1014.0 |
| 20260507021138 | 12 | 137 | 8.0 | 19.3 | 0.00 | 0.41 | 0.23 | 94 | 1014.0 |
| 20260507020629 | 12 | 123 | 9.7 | 19.3 | 0.03 | 0.41 | 0.23 | 94 | 1014.0 |
| 20260507020123 | 12 | 159 | 9.7 | 19.3 | 0.03 | 0.41 | 0.23 | 94 | 1014.0 |
| 20260507015624 | 12 | 138 | 9.7 | 19.3 | 0.03 | 0.41 | 0.23 | 93 | 1014.0 |
| 20260507015123 | 12 | 192 | 9.7 | 17.7 | 0.03 | 0.43 | 0.23 | 93 | 1013.9 |
| 20260507014619 | 12 | 154 | 9.7 | 19.3 | 0.03 | 0.48 | 0.23 | 93 | 1014.0 |
| 20260507014119 | 12 | 148 | 11.3 | 19.3 | 0.03 | 0.51 | 0.23 | 93 | 1014.1 |
| 20260507013631 | 12 | 137 | 12.9 | 20.9 | 0.03 | 0.51 | 0.23 | 93 | 1014.0 |
| 20260507012601 | 12 | 144 | 11.3 | 19.3 | 0.08 | 0.51 | 0.23 | 93 | 1014.2 |
| 20260507012058 | 12 | 190 | 9.7 | 14.5 | 0.10 | 0.51 | 0.23 | 93 | 1014.2 |
| 20260507011555 | 12 | 196 | 4.8 | 14.5 | 0.13 | 0.51 | 0.23 | 93 | 1014.2 |
| 20260507011058 | 12 | 148 | 4.8 | 14.5 | 0.15 | 0.51 | 0.23 | 93 | 1014.2 |
| 20260507010550 | 12 | 257 | 6.4 | 11.3 | 0.13 | 0.51 | 0.23 | 93 | 1014.2 |
| 20260507010045 | 12 | 200 | 6.4 | 14.5 | 0.15 | 0.36 | 0.23 | 93 | 1014.2 |
| 20260507005527 | 12 | 203 | 9.7 | 16.1 | 0.15 | 0.36 | 0.23 | 93 | 1014.2 |
| 20260507005040 | 12 | 204 | 9.7 | 16.1 | 0.15 | 0.36 | 0.23 | 93 | 1014.0 |
| 20260507004536 | 12 | 147 | 6.4 | 11.3 | 0.15 | 0.36 | 0.23 | 93 | 1014.1 |
| 20260507003951 | 12 | 154 | 6.4 | 14.5 | 0.18 | 0.36 | 0.23 | 93 | 1014.0 |
| 20260507003446 | 12 | 141 | 8.0 | 14.5 | 0.18 | 0.36 | 0.23 | 93 | 1014.0 |
| 20260507002944 | 13 | 166 | 8.0 | 17.7 | 0.15 | 0.36 | 0.18 | 93 | 1014.0 |
| 20260507002438 | 13 | 173 | 9.7 | 17.7 | 0.13 | 0.36 | 0.15 | 93 | 1013.9 |
| 20260507001943 | 13 | 157 | 11.3 | 17.7 | 0.13 | 0.36 | 0.15 | 93 | 1014.0 |
| 20260507001444 | 13 | 151 | 8.0 | 14.5 | 0.10 | 0.36 | 0.13 | 93 | 1014.0 |
| 20260507000922 | 13 | 207 | 8.0 | 14.5 | 0.08 | 0.36 | 0.10 | 93 | 1014.1 |
| 20260507000428 | 13 | 195 | 6.4 | 14.5 | 0.05 | 0.36 | 0.08 | 93 | 1014.2 |
| 20260506235921 | 13 | 141 | 6.4 | 14.5 | 0.05 | 0.30 | 0.08 | 93 | 1014.2 |
| 20260506235414 | 13 | 189 | 4.8 | 9.7 | 0.05 | 0.30 | 0.08 | 93 | 1014.2 |
| 20260506234913 | 13 | 164 | 6.4 | 14.5 | 0.05 | 0.30 | 0.05 | 93 | 1014.1 |
| 20260506234403 | 13 | 162 | 6.4 | 17.7 | 0.05 | 0.30 | 0.05 | 93 | 1014.1 |
| 20260506233906 | 13 | 190 | 8.0 | 17.7 | 0.05 | 0.30 | 0.05 | 93 | 1014.1 |
| 20260506233355 | 13 | 157 | 8.0 | 19.3 | 0.05 | 0.30 | 0.05 | 93 | 1014.1 |
| 20260506232853 | 13 | 204 | 12.9 | 19.3 | 0.05 | 0.30 | 0.05 | 93 | 1014.0 |
| 20260506232355 | 13 | 209 | 12.9 | 19.3 | 0.03 | 0.30 | 0.03 | 93 | 1014.1 |
| 20260506231852 | 13 | 206 | 8.0 | 17.7 | 0.03 | 0.30 | 0.03 | 92 | 1014.1 |
| 20260506231350 | 13 | 149 | 9.7 | 20.9 | 0.03 | 0.30 | 0.03 | 92 | 1014.1 |
| 20260506230832 | 13 | 164 | 16.1 | 20.9 | 0.03 | 0.30 | 0.03 | 92 | 1014.0 |
| 20260506230330 | 13 | 203 | 9.7 | 20.9 | 0.03 | 0.30 | 0.03 | 92 | 1014.0 |
| 20260506225826 | 13 | 199 | 12.9 | 22.5 | 0.03 | 0.28 | 0.03 | 92 | 1014.1 |
| 20260506225329 | 13 | 197 | 16.1 | 24.1 | 0.03 | 0.28 | 0.03 | 92 | 1014.1 |
| 20260506224821 | 13 | 197 | 17.7 | 24.1 | 0.03 | 0.28 | 0.03 | 92 | 1014.2 |
| 20260506224323 | 13 | 199 | 16.1 | 25.7 | 0.00 | 0.28 | 0.00 | 92 | 1014.1 |
| 20260506223817 | 14 | 189 | 14.5 | 25.7 | 0.00 | 0.28 | 0.00 | 91 | 1014.3 |
| 20260506223315 | 14 | 203 | 14.5 | 22.5 | 0.00 | 0.28 | 0.00 | 91 | 1014.4 |
| 20260506222815 | 14 | 182 | 9.7 | 17.7 | 0.00 | 0.28 | 0.00 | 91 | 1014.4 |